Погода в Ичалках

Россия / Нижегородская область     55°26′36″N   44°30′10″E
темп.,
°C
ветер,
м/с
пор.,
м/с
влажн.,
%
обл.,
%
осадки,
мм/ч
давл.,
гПа
погр.,
м
30 ноября, вт
вт3000:00+6ююв71695100 0.1 998568
03:00+6юв101992100 2.6 991760
06:00+8ю112087100 2.1 9851111
09:00+8ю122087100 3.0 9831259
12:00+9ююз81478100 0.4 9831038
15:00+7юз9146712 0.5 9831286
18:00+3ююз11196689 0.1 9841545
21:00+2юз122167100 0.1 9841718
1 декабря, ср
ср100:00+1юз1118667 0.1 9871369
03:00−1юз9156935 0.1 9881016
06:00−1юз71272100 0.0 990867
09:00−1юз51072100 0.0 990769
12:00−1зюз686597 0.0 990769
15:00−1зюз5967100 0.0 991762
18:00−2зюз5107154 0.0 992746
21:00−3зюз610715 0.0 992786
2 декабря, чт
чт200:00−3юз6117387 0.0 994716
03:00−3юз599197 0.1 995744
06:00−4з587967 0.1 997834
09:00−4з697982 0.2 1000786
12:00−4з6968100 0.0 1003844
15:00−5зюз596747 0.0 1004705
18:00−4юз51068100 0.0 1005617
21:00−4ююз51264100 0.0 1005571
3 декабря, пт
пт300:00−4ююз51293100 0.4 1004618
03:00−2юз51394100 0.7 1004556
06:000юз61394100 0.1 1005497
09:00+1юз61294100 0.1 1007608
12:00+2юз51287100 0.0 1008521
15:00+1ююз51091100 0.0 1009315
18:00+1ююз61194100 0.0 1010459
21:00+2ю61492100 0.0 1008459
4 декабря, сб
сб400:00+3ю71693100 0.0 1007608
03:00+4ююз81791100 0.0 1005686
06:00+4ююз91788100 0.1 1004725
09:00+2ююз81797100 1.6 1005885
12:00+1з61197100 0.8 1008732
15:000зюз5982100 0.9 1011495
18:00−1зюз4984100 0.0 1013331
21:00−2зюз388264 0.0 1014284